Jacksonville, IL

12:09 AM CST on February 10, 2016 (GMT -0600)
Jacksonville Municipal

Weather History for KIJX - May, 2013

Change the Weather History Date:

Sunday, May 19, 2013

  Actual Average (KSPI) Record (KSPI)
Temperature  
Mean Temperature 76 °F 65 °F  
Max Temperature 88 °F 76 °F 94 °F (1962)
Min Temperature 65 °F 54 °F 35 °F (1929)
Degree Days  
Heating Degree Days 0 3  
Month to date heating degree days 97  
Since 1 July heating degree days 5442  
Cooling Degree Days 12 3  
Month to date cooling degree days 37  
Year to date cooling degree days 57  
Growing Degree Days 26 (Base 50)    
Moisture  
Dew Point 67 °F    
Average Humidity 70    
Maximum Humidity 91    
Minimum Humidity 52    
Precipitation  
Precipitation 0.00 in 0.14 in 1.95 in (1931)
Month to date precipitation 2.55  
Year to date precipitation 12.32  
Snow  
Snow 0.00 in 0.00 in 0.00 in ()
Month to date snowfall 0.0  
Since 1 July snowfall 20.9  
Snow Depth -    
Sea Level Pressure  
Sea Level Pressure 29.83 in    
Wind  
Wind Speed 10 mph (SE)    
Max Wind Speed 21 mph    
Max Gust Speed 29 mph    
Visibility 9 miles    
Events      
T = Trace of Precipitation, MM = Missing Value Source: NWS Daily Summary

Daily Weather History Graph

Daily Weather History Graph

Search for Another Location

Airport or City:

Trip Planner

Search our weather history database for the weather conditions in past years. The results will help you decide how hot, cold, wet, or windy it might be!

Date:

Astronomy

May. 19, 2013 Rise Set
Actual Time 5:42 AM CDT 8:12 PM CDT
Civil Twilight 5:11 AM CDT 8:43 PM CDT
Nautical Twilight 4:33 AM CDT 9:22 PM CDT
Astronomical Twilight 3:50 AM CDT 10:05 PM CDT
Moon 2:17 PM CDT (5/19) 2:05 AM CDT (5/19)
Length of Visible Light 15h 32m
Length of Day
14h 30m
Waxing Gibbous, 65% of the Moon is Illuminated
May 19
Waxing Gibbous
May 24
Full
May 31
Last Quarter
Jun 8
New
Jun 16
First Quarter

Hourly Weather History & Observations

Time (CDT) Temp. Heat Index Dew Point Humidity Pressure Visibility Wind Dir Wind Speed Gust Speed Precip Events Conditions
12:15 AM 68.9 °F - 62.8 °F 81% 29.91 in 10.0 mi SE 8.1 mph - N/A   Clear
12:35 AM 68.4 °F - 62.8 °F 82% 29.91 in 10.0 mi SE 6.9 mph - N/A   Clear
12:55 AM 67.5 °F - 62.8 °F 85% 29.92 in 10.0 mi SE 6.9 mph - N/A   Clear
1:15 AM 67.3 °F - 62.6 °F 85% 29.91 in 10.0 mi ESE 6.9 mph - N/A   Clear
1:35 AM 67.1 °F - 63.0 °F 87% 29.91 in 10.0 mi SE 6.9 mph - N/A   Clear
1:55 AM 66.7 °F - 63.0 °F 88% 29.91 in 10.0 mi SE 5.8 mph - N/A   Clear
2:15 AM 66.7 °F - 62.8 °F 87% 29.91 in 10.0 mi ESE 6.9 mph - N/A   Clear
2:35 AM 65.5 °F - 62.6 °F 90% 29.90 in 7.0 mi ESE 8.1 mph - N/A   Clear
2:55 AM 65.8 °F - 63.0 °F 90% 29.91 in 7.0 mi SE 4.6 mph - N/A   Clear
3:15 AM 65.3 °F - 62.6 °F 91% 29.90 in 7.0 mi ESE 6.9 mph - N/A   Scattered Clouds
3:35 AM 65.3 °F - 62.6 °F 91% 29.90 in 7.0 mi SE 5.8 mph - N/A   Clear
3:55 AM 66.0 °F - 63.0 °F 90% 29.91 in 7.0 mi SE 5.8 mph - N/A   Scattered Clouds
4:15 AM 66.6 °F - 63.1 °F 89% 29.92 in 7.0 mi Calm Calm - N/A   Mostly Cloudy
4:35 AM 66.6 °F - 63.5 °F 90% 29.91 in 7.0 mi ESE 4.6 mph - N/A   Mostly Cloudy
4:55 AM 66.2 °F - 63.1 °F 90% 29.91 in 7.0 mi SE 4.6 mph - N/A   Scattered Clouds
5:15 AM 66.2 °F - 63.1 °F 90% 29.89 in 7.0 mi ESE 8.1 mph - N/A   Scattered Clouds
5:35 AM 66.6 °F - 63.1 °F 89% 29.88 in 7.0 mi ESE 8.1 mph - N/A   Clear
5:55 AM 66.7 °F - 63.5 °F 89% 29.87 in 7.0 mi ESE 9.2 mph - N/A   Clear
6:15 AM 67.1 °F - 63.7 °F 89% 29.86 in 7.0 mi ESE 10.4 mph - N/A   Clear
6:35 AM 68.0 °F - 64.4 °F 88% 29.88 in 7.0 mi SSE 6.9 mph - N/A   Scattered Clouds
6:55 AM 68.7 °F - 64.4 °F 86% 29.89 in 7.0 mi SE 8.1 mph - N/A   Scattered Clouds
7:15 AM 69.3 °F - 64.9 °F 86% 29.88 in 7.0 mi ESE 6.9 mph - N/A   Clear
7:35 AM 70.0 °F - 64.9 °F 84% 29.87 in 7.0 mi SE 9.2 mph - N/A   Clear
7:55 AM 71.2 °F - 64.9 °F 80% 29.88 in 10.0 mi SE 12.7 mph - N/A   Clear
8:15 AM 72.3 °F - 65.3 °F 78% 29.87 in 10.0 mi SE 12.7 mph - N/A   Clear
8:35 AM 74.3 °F - 66.0 °F 75% 29.88 in 10.0 mi SE 11.5 mph - N/A   Clear
8:55 AM 75.0 °F - 66.4 °F 74% 29.87 in 10.0 mi SSE 10.4 mph - N/A   Clear
9:15 AM 76.6 °F - 67.1 °F 72% 29.88 in 10.0 mi SE 10.4 mph - N/A   Clear
9:35 AM 77.2 °F - 67.5 °F 72% 29.86 in 10.0 mi SE 11.5 mph - N/A   Clear
9:55 AM 78.1 °F - 68.0 °F 71% 29.90 in 10.0 mi South 6.9 mph - N/A   Clear
10:15 AM 78.1 °F - 68.4 °F 72% 29.91 in 10.0 mi SSW 10.4 mph - N/A   Scattered Clouds
10:35 AM 78.6 °F - 68.9 °F 72% 29.91 in 7.0 mi South 10.4 mph - N/A   Scattered Clouds
10:55 AM 79.3 °F - 68.9 °F 70% 29.90 in 10.0 mi South 6.9 mph - N/A   Clear
11:15 AM 80.8 °F 83.9 °F 69.3 °F 68% 29.87 in 7.0 mi SE 11.5 mph - N/A   Clear
11:35 AM 82.0 °F 85.7 °F 69.6 °F 66% 29.88 in 7.0 mi South 11.5 mph - N/A   Clear
11:55 AM 82.0 °F 85.7 °F 69.8 °F 66% 29.90 in 7.0 mi SSW 6.9 mph - N/A   Clear
12:15 PM 82.8 °F 86.7 °F 70.0 °F 65% 29.88 in 7.0 mi SE 5.8 mph - N/A   Clear
12:35 PM 82.8 °F 86.7 °F 69.8 °F 65% 29.85 in 7.0 mi SSE 6.9 mph - N/A   Clear
12:55 PM 84.7 °F 89.4 °F 70.5 °F 62% 29.83 in 7.0 mi ESE 10.4 mph - N/A   Clear
1:15 PM 86.0 °F 91.1 °F 70.7 °F 60% 29.82 in 7.0 mi SE 11.5 mph 17.3 mph N/A   Clear
1:35 PM 84.4 °F 88.5 °F 69.8 °F 61% 29.81 in 10.0 mi ESE 15.0 mph 18.4 mph N/A   Clear
1:55 PM 85.1 °F 89.4 °F 69.6 °F 60% 29.81 in 10.0 mi SSE 16.1 mph - N/A   Clear
2:15 PM 87.1 °F 92.0 °F 70.3 °F 57% 29.80 in 7.0 mi SE 17.3 mph - N/A   Clear
2:35 PM 86.9 °F 92.1 °F 70.7 °F 58% 29.79 in 10.0 mi SE 15.0 mph 21.9 mph N/A   Clear
2:55 PM 87.4 °F 92.3 °F 70.2 °F 56% 29.78 in 10.0 mi SE 16.1 mph 24.2 mph N/A   Clear
3:15 PM 88.0 °F 92.9 °F 70.0 °F 55% 29.77 in 10.0 mi SSE 17.3 mph 24.2 mph N/A   Clear
3:35 PM 88.2 °F 92.9 °F 69.4 °F 54% 29.76 in 10.0 mi SE 18.4 mph 25.3 mph N/A   Clear
3:55 PM 88.3 °F 92.4 °F 68.9 °F 52% 29.76 in 10.0 mi SSE 16.1 mph 25.3 mph N/A   Clear
4:15 PM 86.9 °F 90.6 °F 68.4 °F 54% 29.76 in 10.0 mi SSE 17.3 mph 24.2 mph N/A   Clear
4:35 PM 88.3 °F 92.4 °F 68.7 °F 52% 29.75 in 10.0 mi SSE 17.3 mph 28.8 mph N/A   Clear
4:55 PM 88.3 °F 92.8 °F 69.4 °F 53% 29.74 in 10.0 mi SE 18.4 mph 24.2 mph N/A   Clear
5:15 PM 87.8 °F 91.8 °F 68.9 °F 53% 29.73 in 10.0 mi SE 18.4 mph 26.5 mph N/A   Clear
5:35 PM 87.3 °F 91.2 °F 68.9 °F 54% 29.72 in 10.0 mi SSE 17.3 mph 25.3 mph N/A   Clear
5:55 PM 86.7 °F 91.0 °F 69.1 °F 56% 29.72 in 7.0 mi SSE 17.3 mph 27.6 mph N/A   Clear
6:15 PM 86.2 °F 90.7 °F 70.0 °F 58% 29.72 in 10.0 mi SE 18.4 mph 26.5 mph N/A   Clear
6:35 PM 86.0 °F 89.7 °F 68.5 °F 56% 29.71 in 10.0 mi SSE 17.3 mph 25.3 mph N/A   Clear
6:55 PM 85.3 °F 88.8 °F 68.7 °F 57% 29.71 in 10.0 mi SSE 16.1 mph 21.9 mph N/A   Clear
7:15 PM 85.1 °F 88.2 °F 68.0 °F 56% 29.71 in 10.0 mi SSE 20.7 mph 27.6 mph N/A   Clear
7:35 PM 84.2 °F 87.3 °F 68.0 °F 58% 29.71 in 10.0 mi SSE 15.0 mph - N/A   Clear
7:55 PM 83.7 °F 86.7 °F 68.2 °F 59% 29.73 in 10.0 mi SSE 15.0 mph 24.2 mph N/A   Clear
8:15 PM 82.8 °F 86.0 °F 68.4 °F 62% 29.73 in 10.0 mi SSE 15.0 mph 19.6 mph N/A   Clear
8:35 PM 81.9 °F 85.0 °F 68.5 °F 64% 29.73 in 10.0 mi SE 13.8 mph 20.7 mph N/A   Clear
8:55 PM 81.3 °F 84.3 °F 68.4 °F 65% 29.74 in 10.0 mi SSE 13.8 mph - N/A   Clear
9:15 PM 80.8 °F 83.6 °F 68.5 °F 66% 29.74 in 10.0 mi SSE 11.5 mph - N/A   Clear
9:35 PM 80.2 °F 82.8 °F 68.0 °F 66% 29.73 in 10.0 mi SSE 17.3 mph 25.3 mph N/A   Clear
9:55 PM 79.9 °F - 66.2 °F 63% 29.75 in 10.0 mi SSE 13.8 mph 20.7 mph N/A   Clear
10:15 PM 79.3 °F - 65.3 °F 62% 29.77 in 10.0 mi South 12.7 mph 17.3 mph N/A   Clear
10:35 PM 78.8 °F - 64.2 °F 61% 29.78 in 10.0 mi South 13.8 mph 19.6 mph N/A   Clear
10:55 PM 78.8 °F - 63.5 °F 59% 29.78 in 10.0 mi South 12.7 mph 20.7 mph N/A   Clear
11:15 PM 78.8 °F - 63.5 °F 59% 29.78 in 10.0 mi South 15.0 mph - N/A   Clear
11:35 PM 78.3 °F - 63.5 °F 60% 29.78 in 10.0 mi South 13.8 mph 20.7 mph N/A   Clear
11:55 PM 78.3 °F - 63.9 °F 61% 29.77 in 10.0 mi South 15.0 mph 24.2 mph N/A   Clear